PDT4561 KGSP-KCLT

Flight info

Callsign PDT4561
Flight time 0h 21m
Altitude 12999
Route SPA PEPNE LERDY SNAKK KCLT
Aircraft E45/M-VGDW/C

Departure

Time 2026-05-05 00:38
Airport Greenville-Spartanburg International Airport (KGSP)

Arrival

Time 2026-05-05 00:59
Airport Charlotte Douglas International Airport (KCLT)
Time Latitude Longitude Altitude Speed Heading
2026-05-05 00:32 34.88938 -82.21892 972 ft 0 kts 120°
2026-05-05 00:33 34.88936 -82.21902 971 ft 11 kts 74°
2026-05-05 00:34 34.89013 -82.21902 972 ft 32 kts 358°
2026-05-05 00:34 34.89267 -82.21862 972 ft 31 kts 40°
2026-05-05 00:34 34.89426 -82.21725 972 ft 25 kts 33°
2026-05-05 00:34 34.89574 -82.21608 972 ft 24 kts 33°
2026-05-05 00:35 34.89697 -82.21509 972 ft 16 kts 33°
2026-05-05 00:35 34.89815 -82.21416 972 ft 20 kts 33°
2026-05-05 00:35 34.89930 -82.21325 972 ft 22 kts 33°
2026-05-05 00:35 34.90095 -82.21196 972 ft 31 kts 32°
2026-05-05 00:36 34.90272 -82.21061 972 ft 30 kts 32°
2026-05-05 00:36 34.90305 -82.21036 972 ft 30 kts 32°
2026-05-05 00:36 34.90392 -82.20969 972 ft 31 kts 32°
2026-05-05 00:36 34.90605 -82.20806 972 ft 33 kts 32°
2026-05-05 00:37 34.90727 -82.20742 972 ft 14 kts 334°
2026-05-05 00:37 34.90788 -82.20840 972 ft 15 kts 302°
2026-05-05 00:37 34.90813 -82.20925 972 ft 7 kts 238°
2026-05-05 00:37 34.90508 -82.21165 972 ft 112 kts 213°
2026-05-05 00:38 34.89566 -82.21893 1387 ft 188 kts 212°
2026-05-05 00:38 34.88268 -82.22441 2560 ft 200 kts 188°
2026-05-05 00:38 34.86954 -82.21990 3522 ft 210 kts 154°
2026-05-05 00:38 34.85975 -82.20568 4364 ft 227 kts 120°
2026-05-05 00:39 34.85763 -82.18826 5031 ft 236 kts 88°
2026-05-05 00:39 34.86015 -82.17709 5406 ft 239 kts 68°
2026-05-05 00:39 34.87051 -82.16134 6172 ft 246 kts 39°
2026-05-05 00:39 34.88407 -82.14936 8066 ft 226 kts 30°
2026-05-05 00:40 34.89801 -82.13854 9386 ft 248 kts 27°
2026-05-05 00:40 34.91313 -82.12666 10398 ft 272 kts 30°
2026-05-05 00:40 34.92867 -82.11191 11423 ft 291 kts 37°
2026-05-05 00:40 34.94356 -82.09432 12435 ft 309 kts 43°
2026-05-05 00:41 34.95814 -82.07379 13176 ft 337 kts 47°
2026-05-05 00:41 34.97338 -82.04948 13070 ft 374 kts 52°
2026-05-05 00:41 34.98817 -82.02298 13017 ft 383 kts 54°
2026-05-05 00:41 35.00244 -81.99504 13003 ft 390 kts 57°
2026-05-05 00:42 35.01634 -81.96653 12996 ft 396 kts 57°
2026-05-05 00:42 35.03248 -81.93942 12999 ft 397 kts 49°
2026-05-05 00:42 35.05100 -81.91408 12999 ft 399 kts 44°
2026-05-05 00:42 35.07061 -81.89055 12998 ft 399 kts 41°
2026-05-05 00:43 35.09125 -81.86778 12997 ft 399 kts 39°
2026-05-05 00:43 35.11233 -81.84573 12996 ft 399 kts 38°
2026-05-05 00:43 35.13381 -81.82397 12996 ft 398 kts 37°
2026-05-05 00:43 35.15509 -81.80279 12996 ft 398 kts 36°
2026-05-05 00:44 35.17667 -81.78149 12996 ft 398 kts 36°
2026-05-05 00:44 35.19835 -81.76015 12996 ft 398 kts 36°
2026-05-05 00:44 35.21997 -81.73885 12996 ft 398 kts 36°
2026-05-05 00:44 35.24150 -81.71757 12996 ft 398 kts 36°
2026-05-05 00:45 35.26289 -81.69637 12996 ft 398 kts 36°
2026-05-05 00:45 35.28436 -81.67500 12980 ft 391 kts 37°
2026-05-05 00:45 35.30487 -81.65431 12343 ft 372 kts 37°
2026-05-05 00:45 35.32108 -81.63091 11691 ft 360 kts 54°
2026-05-05 00:46 35.33229 -81.60392 11054 ft 349 kts 64°
2026-05-05 00:46 35.34095 -81.57648 10404 ft 340 kts 69°
2026-05-05 00:46 35.34846 -81.54936 9752 ft 332 kts 70°
2026-05-05 00:46 35.35496 -81.52266 9101 ft 327 kts 75°
2026-05-05 00:47 35.35930 -81.49563 8457 ft 321 kts 79°
2026-05-05 00:47 35.36261 -81.46845 7800 ft 317 kts 81°
2026-05-05 00:47 35.36541 -81.44225 7179 ft 302 kts 82°
2026-05-05 00:47 35.36791 -81.41752 6517 ft 283 kts 82°
2026-05-05 00:48 35.37027 -81.39443 5869 ft 269 kts 83°
2026-05-05 00:48 35.37278 -81.37205 5216 ft 260 kts 83°
2026-05-05 00:48 35.37541 -81.35084 5025 ft 242 kts 83°
2026-05-05 00:48 35.37803 -81.33071 4999 ft 237 kts 83°
2026-05-05 00:49 35.38064 -81.31083 4998 ft 239 kts 82°
2026-05-05 00:49 35.38328 -81.29068 4998 ft 241 kts 82°
2026-05-05 00:49 35.38598 -81.27015 4881 ft 245 kts 82°
2026-05-05 00:49 35.38868 -81.24968 4734 ft 244 kts 82°
2026-05-05 00:50 35.39138 -81.22932 4582 ft 238 kts 82°
2026-05-05 00:50 35.39400 -81.20986 4421 ft 224 kts 82°
2026-05-05 00:50 35.39651 -81.19147 4259 ft 212 kts 82°
2026-05-05 00:50 35.39890 -81.17409 4108 ft 205 kts 82°
2026-05-05 00:51 35.40123 -81.15709 4017 ft 198 kts 82°
2026-05-05 00:51 35.40347 -81.14089 3995 ft 192 kts 82°
2026-05-05 00:51 35.40570 -81.12487 3992 ft 187 kts 82°
2026-05-05 00:51 35.40788 -81.10921 4001 ft 182 kts 82°
2026-05-05 00:52 35.40930 -81.09916 3995 ft 180 kts 82°
2026-05-05 00:52 35.41212 -81.07912 3997 ft 181 kts 82°
2026-05-05 00:52 35.41358 -81.06880 3998 ft 182 kts 82°
2026-05-05 00:52 35.41643 -81.04861 3997 ft 182 kts 82°
2026-05-05 00:53 35.41786 -81.03844 3995 ft 181 kts 82°
2026-05-05 00:53 35.41982 -81.02345 3982 ft 174 kts 85°
2026-05-05 00:53 35.41961 -81.00891 4001 ft 166 kts 96°
2026-05-05 00:53 35.41870 -80.99483 3995 ft 165 kts 97°
2026-05-05 00:54 35.41648 -80.98141 3936 ft 162 kts 116°
2026-05-05 00:54 35.40870 -80.97184 4053 ft 160 kts 143°
2026-05-05 00:54 35.39866 -80.96576 3988 ft 163 kts 165°
2026-05-05 00:54 35.38720 -80.96504 3742 ft 169 kts 182°
2026-05-05 00:55 35.37551 -80.96545 3425 ft 163 kts 181°
2026-05-05 00:55 35.36449 -80.96457 3185 ft 155 kts 176°
2026-05-05 00:55 35.35409 -80.96354 3008 ft 149 kts 177°
2026-05-05 00:55 35.34386 -80.96281 2864 ft 145 kts 178°
2026-05-05 00:56 35.33381 -80.96205 2737 ft 144 kts 178°
2026-05-05 00:56 35.32382 -80.96123 2607 ft 144 kts 178°
2026-05-05 00:56 35.31394 -80.96044 2461 ft 144 kts 178°
2026-05-05 00:56 35.30388 -80.95962 2289 ft 145 kts 178°
2026-05-05 00:57 35.29379 -80.95878 2097 ft 145 kts 177°
2026-05-05 00:57 35.28374 -80.95794 1896 ft 144 kts 177°
2026-05-05 00:57 35.27385 -80.95711 1699 ft 143 kts 177°
2026-05-05 00:57 35.26392 -80.95626 1502 ft 142 kts 177°
2026-05-05 00:58 35.25408 -80.95542 1307 ft 139 kts 177°
2026-05-05 00:58 35.24453 -80.95459 1109 ft 135 kts 177°
2026-05-05 00:58 35.23527 -80.95380 938 ft 131 kts 178°
2026-05-05 00:58 35.22652 -80.95304 773 ft 121 kts 177°
2026-05-05 00:59 35.21925 -80.95250 756 ft 74 kts 176°
2026-05-05 00:59 35.21616 -80.95222 756 ft 31 kts 176°
2026-05-05 00:59 35.21422 -80.95207 756 ft 21 kts 177°
2026-05-05 00:59 35.21291 -80.95192 756 ft 17 kts 156°
2026-05-05 01:00 35.21203 -80.95098 756 ft 16 kts 135°
2026-05-05 01:00 35.21168 -80.95039 756 ft 7 kts 107°
2026-05-05 01:00 35.21185 -80.94975 756 ft 9 kts 21°
2026-05-05 01:00 35.21252 -80.94981 756 ft 11 kts 354°
2026-05-05 01:01 35.21335 -80.94991 756 ft 13 kts 355°
2026-05-05 01:01 35.21433 -80.94999 756 ft 15 kts 357°
2026-05-05 01:01 35.21524 -80.94990 756 ft 9 kts 32°
2026-05-05 01:01 35.21550 -80.94915 756 ft 11 kts 78°
2026-05-05 01:02 35.21568 -80.94792 756 ft 18 kts 82°
2026-05-05 01:02 35.21607 -80.94606 756 ft 27 kts 70°
2026-05-05 01:02 35.21683 -80.94387 756 ft 29 kts 68°